TimeEDT,TemperatureF,Dew PointF,Humidity,Sea Level PressureIn,VisibilityMPH,Wind Direction,Wind SpeedMPH,Gust SpeedMPH,PrecipitationIn,Events,Conditions,WindDirDegrees,DateUTC
12:15 AM,53.8,52.2,94,29.96,10.0,Calm,Calm,-,N/A,,Overcast,0,2013-05-08 04:15:00
12:35 AM,53.6,52.0,94,29.97,7.0,Calm,Calm,-,N/A,,Overcast,0,2013-05-08 04:35:00
12:55 AM,53.8,52.2,94,29.97,4.0,SSW,3.5,-,N/A,,Overcast,200,2013-05-08 04:55:00
1:15 AM,53.6,51.8,94,29.96,3.0,Calm,Calm,-,N/A,,Overcast,0,2013-05-08 05:15:00
1:35 AM,53.1,51.8,95,29.96,2.5,Calm,Calm,-,N/A,,Mostly Cloudy,0,2013-05-08 05:35:00
1:55 AM,52.9,51.4,95,29.97,2.0,NE,3.5,-,N/A,,Overcast,50,2013-05-08 05:55:00
2:15 AM,53.2,51.8,95,29.97,3.0,Calm,Calm,-,N/A,,Overcast,0,2013-05-08 06:15:00
2:35 AM,53.1,51.8,95,29.96,3.0,Calm,Calm,-,N/A,,Overcast,0,2013-05-08 06:35:00
2:55 AM,52.7,51.3,95,29.96,2.0,Calm,Calm,-,N/A,,Overcast,0,2013-05-08 06:55:00
3:15 AM,52.7,51.3,95,29.96,2.5,Calm,Calm,-,N/A,,Overcast,0,2013-05-08 07:15:00
3:35 AM,52.2,50.9,95,29.97,1.2,Calm,Calm,-,N/A,,Overcast,0,2013-05-08 07:35:00
3:55 AM,52.5,51.3,95,29.97,2.5,Calm,Calm,-,N/A,Rain,Rain,0,2013-05-08 07:55:00
4:15 AM,52.2,50.9,95,29.97,2.0,Calm,Calm,-,N/A,,Overcast,0,2013-05-08 08:15:00
4:35 AM,52.2,50.9,95,29.96,3.0,Calm,Calm,-,N/A,,Overcast,0,2013-05-08 08:35:00
4:55 AM,52.0,50.9,96,29.97,2.0,Calm,Calm,-,N/A,,Overcast,0,2013-05-08 08:55:00
5:15 AM,52.7,51.3,95,29.96,3.0,Calm,Calm,-,N/A,,Overcast,0,2013-05-08 09:15:00
5:35 AM,52.7,51.4,95,29.96,3.0,Calm,Calm,-,N/A,,Overcast,0,2013-05-08 09:35:00
5:55 AM,52.2,50.9,95,29.97,2.5,Calm,Calm,-,N/A,,Overcast,0,2013-05-08 09:55:00
6:15 AM,52.7,51.4,95,29.97,3.0,Calm,Calm,-,N/A,,Overcast,0,2013-05-08 10:15:00
6:35 AM,52.9,51.6,95,29.98,2.5,NNW,3.5,-,N/A,,Overcast,330,2013-05-08 10:35:00
6:55 AM,53.1,51.8,95,29.98,2.5,Calm,Calm,-,N/A,,Overcast,0,2013-05-08 10:55:00
7:15 AM,53.6,52.5,96,29.99,2.5,North,3.5,-,N/A,,Overcast,10,2013-05-08 11:15:00
7:35 AM,54.0,52.7,95,30.00,3.0,NE,3.5,-,N/A,,Overcast,40,2013-05-08 11:35:00
8:15 AM,54.1,52.5,94,30.01,5.0,NE,4.6,-,N/A,,Overcast,40,2013-05-08 12:15:00
8:35 AM,54.5,52.5,93,30.01,5.0,NNE,4.6,-,N/A,,Overcast,20,2013-05-08 12:35:00
8:55 AM,55.0,52.9,92,30.02,5.0,NE,4.6,-,N/A,,Overcast,50,2013-05-08 12:55:00
9:15 AM,55.8,53.1,91,30.02,10.0,ENE,5.8,-,N/A,,Overcast,70,2013-05-08 13:15:00
9:35 AM,56.5,53.6,90,30.02,10.0,NE,6.9,-,N/A,,Overcast,40,2013-05-08 13:35:00
9:55 AM,56.5,52.9,88,30.02,10.0,NE,4.6,-,N/A,,Overcast,50,2013-05-08 13:55:00
10:15 AM,57.0,53.6,88,30.02,10.0,NE,4.6,-,N/A,Rain,Rain,50,2013-05-08 14:15:00
10:35 AM,57.2,53.8,88,30.02,10.0,Calm,Calm,-,N/A,,Overcast,0,2013-05-08 14:35:00
10:55 AM,57.2,54.0,89,30.02,5.0,NNE,4.6,-,N/A,Rain,Rain,20,2013-05-08 14:55:00
11:15 AM,58.1,55.0,90,30.02,7.0,North,3.5,-,N/A,Rain,Light Rain,10,2013-05-08 15:15:00
11:35 AM,58.6,54.5,86,30.02,10.0,ENE,4.6,-,N/A,Rain,Light Rain,60,2013-05-08 15:35:00
11:55 AM,60.8,54.3,79,30.01,10.0,NE,4.6,-,0.01,,Overcast,50,2013-05-08 15:55:00
12:15 PM,60.4,54.1,80,30.00,10.0,Calm,Calm,-,N/A,,Overcast,0,2013-05-08 16:15:00
12:35 PM,60.4,53.4,78,30.00,10.0,SE,8.1,-,N/A,Rain,Light Rain,140,2013-05-08 16:35:00
12:55 PM,58.8,55.2,88,30.00,4.0,SW,6.9,-,0.02,Rain,Rain,220,2013-05-08 16:55:00
1:15 PM,58.1,54.5,88,29.99,4.0,South,3.5,-,0.03,Rain,Light Rain,170,2013-05-08 17:15:00
1:35 PM,58.6,54.1,85,29.99,10.0,South,4.6,-,0.06,,Overcast,170,2013-05-08 17:35:00
1:55 PM,59.0,54.3,84,29.99,10.0,SSE,4.6,-,0.06,Rain,Light Rain,150,2013-05-08 17:55:00
2:15 PM,59.0,53.6,82,29.98,10.0,SSE,3.5,-,N/A,Rain,Light Rain,150,2013-05-08 18:15:00
2:35 PM,59.9,54.5,82,29.98,10.0,South,3.5,-,N/A,,Overcast,170,2013-05-08 18:35:00
2:55 PM,60.3,53.8,79,29.98,10.0,SSW,5.8,-,N/A,Rain,Light Rain,200,2013-05-08 18:55:00
3:15 PM,59.2,53.6,82,29.98,10.0,South,6.9,-,0.01,Rain,Light Rain,190,2013-05-08 19:15:00
3:35 PM,57.9,54.1,87,29.98,10.0,South,6.9,-,0.02,Rain,Light Rain,190,2013-05-08 19:35:00
3:55 PM,57.2,53.4,87,29.98,10.0,South,4.6,-,0.04,Rain,Light Rain,190,2013-05-08 19:55:00
4:15 PM,57.2,53.2,87,29.97,10.0,South,4.6,-,0.01,Rain,Light Rain,190,2013-05-08 20:15:00
4:35 PM,57.6,53.6,87,29.98,10.0,Calm,Calm,-,0.02,Rain,Light Rain,0,2013-05-08 20:35:00
4:55 PM,57.7,54.0,87,29.98,10.0,Calm,Calm,-,0.03,Rain,Light Rain,0,2013-05-08 20:55:00
5:15 PM,57.9,54.3,88,29.98,10.0,Calm,Calm,-,0.01,Rain,Light Rain,0,2013-05-08 21:15:00
5:35 PM,58.1,53.8,86,29.98,10.0,Calm,Calm,-,0.01,Rain,Light Rain,0,2013-05-08 21:35:00
5:55 PM,58.3,53.4,84,29.97,10.0,East,3.5,-,0.01,,Light Drizzle,90,2013-05-08 21:55:00
6:15 PM,58.1,53.8,86,29.97,10.0,East,4.6,-,N/A,,Light Drizzle,90,2013-05-08 22:15:00
6:35 PM,57.9,53.2,84,29.97,10.0,East,3.5,-,N/A,,Scattered Clouds,100,2013-05-08 22:35:00
6:55 PM,58.1,54.0,86,29.97,10.0,Calm,Calm,-,N/A,,Clear,0,2013-05-08 22:55:00
7:15 PM,58.1,53.8,86,29.97,10.0,Calm,Calm,-,N/A,,Clear,0,2013-05-08 23:15:00
7:35 PM,58.1,53.8,86,29.97,10.0,Calm,Calm,-,N/A,,Clear,0,2013-05-08 23:35:00
7:55 PM,57.9,52.7,83,29.98,10.0,Calm,Calm,-,N/A,,Clear,0,2013-05-08 23:55:00
8:15 PM,57.4,52.2,83,29.98,10.0,Calm,Calm,-,N/A,,Clear,0,2013-05-09 00:15:00
8:35 PM,55.9,53.1,90,29.99,10.0,Calm,Calm,-,N/A,,Scattered Clouds,0,2013-05-09 00:35:00
8:55 PM,54.1,52.0,92,29.99,1.2,Calm,Calm,-,N/A,,Scattered Clouds,0,2013-05-09 00:55:00
9:15 PM,53.2,51.4,94,29.99,4.0,Calm,Calm,-,N/A,,Clear,0,2013-05-09 01:15:00
9:35 PM,52.3,50.9,95,30.00,0.8,Calm,Calm,-,N/A,,Mist,0,2013-05-09 01:35:00
9:55 PM,51.8,50.4,95,30.00,0.2,Calm,Calm,-,N/A,Fog,Fog,0,2013-05-09 01:55:00
10:15 PM,50.9,49.5,95,30.01,0.2,Calm,Calm,-,N/A,Fog,Fog,0,2013-05-09 02:15:00
10:35 PM,51.1,50.0,96,30.01,0.2,Calm,Calm,-,N/A,Fog,Fog,0,2013-05-09 02:35:00
10:55 PM,50.7,49.5,95,30.01,0.2,Calm,Calm,-,N/A,Fog,Fog,0,2013-05-09 02:55:00
11:15 PM,50.4,49.1,95,30.01,0.2,Calm,Calm,-,N/A,Fog,Fog,0,2013-05-09 03:15:00
11:35 PM,51.1,50.0,96,30.01,0.2,Calm,Calm,-,N/A,Fog,Fog,0,2013-05-09 03:35:00